Flag for Russia Weather past 2 weeks in Surgut, Russia

Now
43 °F

Partly sunny.


Feels Like: 39 °F
Forecast: 35 / 46 °F
Wind: 6 mph from Southwest

Location: Surgut Airport


UV Index: 0 (Low)

Visibility: 4 mi


Pressure: 30.12 "Hg

Humidity: 66%

Dew point: 32 °F

Location of SurgutLocation

Historic Weather in Surgut

°F

Surgut temperature yesterday

Maximum temperature yesterday: 46 °F (at 12:30 PM)
Minimum temperature yesterday: 37 °F (at 7:00 AM)
Average temperature yesterday: 42 °F

Past Weeks' High & Low Weather Summary

 TemperatureHumidityPressure
High50 °F (Apr 15, 2:00 PM)100% (Apr 7, 10:30 PM)30.15 "Hg (Apr 7, 10:30 PM)
Low-2 °F (Apr 11, 5:30 AM)33% (Apr 12, 3:30 PM)28.74 "Hg (Apr 8, 3:00 AM)
Average31 °F67%29.80 "Hg
* Reported Apr 2 9:00 AM — Apr 17 9:30 AM, Surgut, Weather by CustomWeather, © 2014

Note: Actual official high and low records may vary slightly from our data, if they occured in-between our weather recording intervals... More about our weather records

Advertising

Historic Weather Conditions — Data for Previous 24 hours

 ConditionsComfort  
Time TempWeatherWind HumidityBarometerVisibility
9:30 AM
Apr 17
43 °FPartly sunny.6 mph66%30.12 "Hg4 mi
9:00 AM41 °FPartly sunny.6 mph70%30.12 "Hg4 mi
8:30 AM39 °FPartly sunny.6 mph75%30.12 "Hg4 mi
8:00 AM37 °FPartly sunny.6 mph81%30.12 "Hg4 mi
7:30 AM36 °FPartly sunny.6 mph87%30.12 "Hg4 mi
7:00 AM36 °FPartly sunny.8 mph87%30.12 "Hg4 mi
6:30 AM34 °FPassing clouds.8 mph87%30.12 "Hg4 mi
6:00 AM34 °FPassing clouds.8 mph87%30.12 "Hg4 mi
5:30 AM36 °FPassing clouds.8 mph87%30.12 "Hg4 mi
5:00 AM34 °FClear.6 mph87%30.12 "Hg4 mi
4:30 AM36 °FClear.8 mph87%30.12 "Hg4 mi
4:00 AM36 °FClear.8 mph87%30.12 "Hg4 mi
3:30 AM36 °FClear.10 mph87%30.12 "Hg4 mi
3:00 AM37 °FClear.13 mph81%30.12 "Hg4 mi
2:30 AM37 °FPassing clouds.10 mph81%30.09 "Hg4 mi
2:00 AM37 °FPassing clouds.10 mph81%30.09 "Hg4 mi
1:30 AM37 °FMostly cloudy.8 mph81%30.09 "Hg4 mi
1:00 AM39 °FMostly cloudy.13 mph81%30.12 "Hg4 mi
12:30 AM37 °FLight rain. Mostly cloudy.10 mph87%30.12 "Hg4 mi
12:00 AM37 °FMostly cloudy.10 mph87%30.12 "Hg4 mi
11:30 PM
Apr 16
37 °FMostly cloudy.13 mph87%30.09 "Hg4 mi
11:00 PM37 °FMostly cloudy.10 mph87%30.09 "Hg4 mi
10:30 PM39 °FMostly cloudy.10 mph75%30.09 "Hg4 mi
10:00 PM39 °FLight rain. Mostly cloudy.13 mph81%30.09 "Hg4 mi
9:30 PM39 °FLight rain. Mostly cloudy.10 mph75%30.12 "Hg4 mi
9:00 PM39 °FPartly sunny.10 mph75%30.09 "Hg4 mi
8:30 PM39 °FMore clouds than sun.10 mph75%30.09 "Hg4 mi
8:00 PM39 °FLight rain. More clouds than sun.13 mph75%30.09 "Hg4 mi
7:00 PM41 °FPartly sunny.13 mph66%30.09 "Hg4 mi
6:30 PM43 °FPartly sunny.13 mph61%30.09 "Hg4 mi
6:00 PM43 °FPartly sunny.13 mph61%30.09 "Hg4 mi
5:30 PM45 °FOvercast.13 mph57%30.09 "Hg4 mi
5:00 PM43 °FOvercast.13 mph66%30.09 "Hg4 mi
4:30 PM45 °FMore clouds than sun.10 mph61%30.09 "Hg4 mi
4:00 PM43 °FPartly sunny.13 mph66%30.09 "Hg4 mi
3:30 PM45 °FPartly sunny.10 mph57%30.09 "Hg4 mi
3:00 PM45 °FPartly sunny.10 mph53%30.07 "Hg4 mi
2:30 PM45 °FPartly sunny.13 mph53%30.07 "Hg4 mi
2:00 PM45 °FPartly sunny.8 mph53%30.07 "Hg4 mi
1:30 PM46 °FPartly sunny.10 mph46%30.07 "Hg4 mi
1:00 PM46 °FPartly sunny.10 mph46%30.09 "Hg4 mi
12:30 PM46 °FPartly sunny.10 mph46%30.09 "Hg4 mi
12:00 PM45 °FPartly sunny.10 mph49%30.09 "Hg4 mi
11:30 AM45 °FPartly sunny.8 mph49%30.09 "Hg4 mi
11:00 AM45 °FPartly sunny.6 mph49%30.09 "Hg4 mi
10:30 AM43 °FScattered clouds.8 mph53%30.09 "Hg4 mi
10:00 AM43 °FScattered clouds.8 mph53%30.09 "Hg4 mi
Weather by CustomWeather, © 2014

See weather overview